Regional Weather Roundup
Issued by NWS Kansas City/Pleasant Hill, MO

Home | Current Version | Previous Version | Graphics & Text | Print | Product List | Glossary Off
Versions: 1 2 3 4 5 6 7 8 9 10 11 12 13 14 15 16 17 18 19 20 21 22 23 24 25 26 27 28 29 30 31 32 33 34 35 36 37 38 39 40 41 42 43 44 45 46 47 48 49 50

000
ASUS43 KEAX 042111
RWREAX

WEATHER ROUNDUP FOR EASTERN KANSAS AND NORTHWEST MISSOURI
NATIONAL WEATHER SERVICE KANSAS CITY/PLEASANT HILL MO
300 PM CST WED MAR 04 2015

KSZ040-057-103>105-MOZ028-029-037-043-042200-
...KANSAS CITY METROPOLITAN AREA...

CITY           SKY/WX    TMP DP  RH WIND       PRES   REMARKS
K.C. INTL      PTSUNNY   28   4  35 N12       30.28S WCI  18
K.C. DOWNTOWN  CLOUDY    28   2  32 N13G22    30.30S WCI  17
LEES SUMMIT    CLOUDY    26   2  35 N14G21    30.29F WCI  14
OLATHE - IXD   CLOUDY    26   6  42 N15       30.27S WCI  14
OLATHE - OJC   CLOUDY    26   2  35 N18       30.26S WCI  13
LAWRENCE       CLOUDY    28   5  37 N13       30.29F WCI  17

$$

MOZ001>008-011>017-020>025-030>033-038>040-044>046-053-054-042200-
...NORTHERN AND CENTRAL MISSOURI...

CITY           SKY/WX    TMP DP  RH WIND       PRES   REMARKS
ST. JOSEPH     MOSUNNY   29   4  34 NW12      30.30S WCI  19
MOSBY          MOCLDY    28   1  31 N15G22    30.30R WCI  17
WARRENSBURG    CLOUDY    27   5  39 N13G18    30.31R WCI  16
WHITEMAN AFB   CLOUDY    25   7  46 N15       30.28R WCI  13
CLINTON        PTSUNNY   28  12  50 N13       30.27R WCI  18
SEDALIA        PTSUNNY   25   8  48 N16       30.27F WCI  12
WARSAW         NOT AVBL
MARSHALL       CLOUDY    27   9  46 N13G21    30.30  WCI  16
CHILLICOTHE      N/A     28   7  41 N9        30.29F WCI  19
KIRKSVILLE     NOT AVBL

$$

MOZ041-047>049-056>058-063>065-088>090-097-042200-
...EASTERN AND SOUTHERN MISSOURI...

CITY           SKY/WX    TMP DP  RH WIND       PRES   REMARKS
ST. LOUIS INTL CLOUDY    24   5  44 N14       30.25R WCI  12
SPIRIT OF STL  CLOUDY    23   4  44 N12       30.25R WCI  12
COLUMBIA       PTSUNNY   24   7  48 N14       30.23F WCI  12
JEFFERSON CITY CLOUDY    25   2  37 N12       30.27F WCI  14
HANNIBAL       PTSUNNY   25  -2  30 N10G16    30.26F WCI  15
ROLLA          CLOUDY    21   6  52 N12       30.20R WCI   9
OSAGE BEACH    CLOUDY    23   9  54 N8        30.23S WCI  14
SPRINGFIELD    FLURRIES  22  13  68 N18G24    30.18R WCI   7
BRANSON        LGT SNOW  23  19  86 N7G18     30.16F VSB 3/4 WCI  15
JOPLIN         CLOUDY    24  14  65 N20       30.24R WCI  10
WEST PLAINS    LGT SNOW  21  16  81 N13       30.15R VSB 1   WCI   9

$$

IAZ060-094-KSZ022-034>040-054-083-096-NEZ052-066-093-042200-
...KANSAS...SOUTHEAST NEBRASKA AND IOWA...

CITY           SKY/WX    TMP DP  RH WIND       PRES   REMARKS
TOPEKA         CLOUDY    31   5  33 N14       30.30F WCI  21
MANHATTAN      MOSUNNY   32   1  26 N9        30.31F WCI  24
EMPORIA        CLOUDY    28   9  44 N15       30.27R WCI  16
CHANUTE        CLOUDY    27   9  46 N17G24    30.26F WCI  14
WICHITA        CLOUDY    30  10  43 N17G26    30.25F WCI  18
OMAHA          MOSUNNY   29  -4  24 NW26G32   30.28F WCI  14
LINCOLN        SUNNY     31   1  28 N24G30    30.29S WCI  17
FALLS CITY     MOSUNNY   32   4  30 N17       30.27F WCI  21
LAMONI         PTSUNNY   28   8  43 NW9       30.24F WCI  19
DES MOINES     PTSUNNY   29   5  36 NW18      30.23F WCI  16

$$



USA.gov is the U.S. government's official web portal to all federal, state and local government web resources and services.